Theta_e
311 311 311 311 311 311 313 316 317 318 318 319 321 322 322 323 323 324 325 325 326 326 325 325 325 325 325 326 321 319 320 322 323 322 323 329 334 336 336 339 338 338 336 335
311 312 311 310 310 311 312 314 317 318 317 319 320 321 322 322 323 323 323 324 324 324 324 324 324 324 325 325 322 320 320 321 322 322 323 332 335 340 341 341 337 336 336 336
310 310 311 310 310 310 311 312 314 316 317 319 320 321 322 322 322 321 322 322 322 322 322 323 323 324 324 325 325 321 322 321 322 321 324 325 330 333 337 333 335 336 337 338
310 309 309 310 310 310 310 311 312 313 316 318 319 321 321 322 322 322 322 321 321 321 322 322 322 323 323 325 326 326 320 321 321 320 323 327 335 338 339 338 334 336 338 339
311 310 311 310 310 310 310 311 311 313 315 316 317 319 320 321 322 322 323 321 321 321 321 321 321 322 322 323 325 325 319 318 319 319 322 328 337 343 342 339 335 338 340 338
311 311 312 312 311 310 310 310 310 313 315 318 318 319 320 320 321 321 322 320 320 320 319 320 320 321 321 323 324 322 318 318 319 321 324 328 342 344 344 343 338 340 340 338
311 312 313 312 311 310 310 309 310 311 315 316 316 317 318 320 320 320 320 319 320 320 321 322 323 322 323 325 327 335 328 323 323 324 326 333 340 338 345 342 344 344 341 341
313 311 313 311 311 311 310 310 309 311 313 313 314 316 317 318 319 318 318 319 320 321 322 324 326 324 323 326 335 338 335 340 336 340 341 344 342 346 346 346 345 344 342 341
312 311 310 312 313 311 311 312 311 311 311 315 314 316 317 318 318 319 320 322 325 327 330 330 330 326 332 338 338 341 343 343 344 345 344 344 347 347 345 342 341 340 339 338
310 313 310 311 310 311 312 311 314 311 313 313 314 315 317 318 317 318 320 323 323 332 334 333 333 334 340 340 345 345 345 345 345 345 345 345 345 343 341 339 338 337 337 336
309 310 311 310 310 310 311 313 314 314 311 311 314 315 317 318 319 320 320 320 320 330 335 337 338 341 343 345 345 346 346 345 345 345 344 344 343 341 338 338 338 336 335 335
309 311 311 310 310 310 310 313 313 319 314 313 315 318 320 320 319 320 320 319 320 331 336 336 338 340 344 344 344 345 344 344 344 343 343 342 339 338 338 338 337 335 335 333
310 311 311 310 312 312 311 311 311 312 315 319 314 317 319 318 318 318 318 317 318 325 336 337 337 342 343 344 343 343 343 342 341 340 339 338 338 338 337 336 335 334 332 331
309 312 311 312 311 310 310 311 311 312 314 314 315 316 317 318 317 318 318 316 317 319 336 337 338 341 342 342 342 341 340 338 337 336 336 337 336 336 335 334 333 332 331 330
310 313 311 311 310 310 310 310 310 311 312 312 313 315 315 316 317 317 316 315 316 318 329 337 338 340 340 340 340 338 337 336 335 333 332 332 333 333 333 332 331 331 330 330
310 314 311 312 310 310 310 310 309 309 311 312 312 312 313 313 313 313 314 315 316 319 323 337 337 339 339 338 337 336 335 333 330 330 331 332 333 333 332 332 331 330 330 330
311 310 312 313 311 311 311 310 310 310 310 311 312 312 313 313 313 314 313 314 317 318 323 337 337 339 340 338 336 335 333 329 330 330 331 332 332 332 332 330 329 329 330 330
310 311 312 313 311 311 310 310 311 312 312 313 312 313 314 314 312 312 312 314 316 318 325 338 339 340 339 336 336 334 330 329 330 330 331 332 332 332 330 330 329 330 330 327
307 309 312 312 312 310 309 312 314 315 315 315 316 316 316 314 313 313 313 315 319 322 333 339 340 339 337 336 335 331 328 330 330 331 331 332 331 330 329 328 329 330 329 325
309 309 312 311 313 313 314 313 311 312 316 317 316 316 316 314 315 316 319 331 333 336 337 339 339 338 337 335 334 329 330 330 331 332 332 331 330 329 329 329 330 330 329 328
313 312 312 312 313 312 311 310 308 316 318 315 315 315 319 318 315 316 321 323 331 337 339 339 338 337 336 334 332 328 330 331 331 332 332 331 329 328 328 329 330 330 330 330
314 315 316 314 315 315 308 306 311 313 310 311 312 312 316 320 320 320 321 326 330 337 339 338 337 336 335 334 330 328 331 331 332 332 331 330 329 328 329 330 330 330 330 331
315 311 313 311 314 309 308 306 304 303 304 307 311 312 315 321 322 323 327 329 334 336 338 337 336 335 333 331 328 330 332 332 333 332 330 330 329 330 331 330 331 331 330 331
313 306 308 308 312 310 310 309 308 311 313 311 313 315 321 322 324 326 329 331 334 336 337 336 334 331 330 328 328 331 332 332 333 332 331 330 330 330 331 331 332 331 333 332
313 311 310 311 312 311 309 310 308 311 312 313 315 315 318 321 326 328 329 332 333 334 337 335 331 329 328 328 329 331 332 331 332 332 331 330 330 331 331 332 331 332 331 331
312 312 312 315 312 311 310 310 307 309 311 311 311 313 314 318 323 327 330 332 332 333 335 336 333 329 327 327 330 331 331 332 333 331 331 328 328 330 330 330 328 328 328 326
Wind_Speed
15 12 14 15 19 25 25 28 22 19 22 26 26 34 31 31 37 34 32 29 29 31 31 29 27 26 26 26 33 32 33 31 29 25 21 19 22 22 21 20 22 22 20 17
12 16 17 15 14 20 22 26 31 20 15 20 25 32 29 27 30 36 36 39 37 36 35 33 32 29 27 29 31 31 32 33 26 22 21 18 16 15 16 16 21 18 16 16
15 16 10 10 14 19 23 25 25 27 20 17 21 27 27 22 27 31 33 34 35 37 37 35 33 31 29 30 30 25 26 28 23 21 19 19 16 17 18 18 16 16 16 18
15 11 13 16 19 18 21 22 26 24 22 23 21 20 23 25 29 29 33 35 37 37 37 36 36 35 33 29 23 22 22 21 25 23 21 19 16 14 14 16 15 15 16 16
21 19 16 18 20 19 20 18 24 23 23 25 30 19 19 19 21 19 18 27 33 35 34 36 37 34 30 27 26 27 32 30 27 26 21 19 16 12 11 12 15 17 17 18
21 22 18 22 19 17 14 17 20 19 14 18 24 22 20 21 26 22 19 25 28 29 28 27 29 27 24 20 21 24 27 27 27 24 20 17 17 16 16 16 19 19 18 18
18 14 14 15 19 20 16 16 11 15 18 19 21 20 19 7 1 1 8 18 10 14 17 17 16 16 18 15 16 16 18 20 21 19 17 17 17 17 17 18 18 20 18 18
7 7 14 7 18 21 21 19 15 20 17 20 26 23 16 16 15 18 14 12 12 13 14 14 16 14 15 15 14 15 14 15 16 16 17 17 18 17 18 19 20 18 17 17
9 6 12 10 12 14 20 20 21 24 19 16 18 26 26 19 11 9 3 6 9 12 14 17 14 11 11 11 13 11 13 15 17 18 19 20 19 20 21 22 19 19 19 18
7 10 10 4 7 13 8 13 4 15 13 20 17 22 15 24 27 15 0 9 16 18 14 7 4 10 10 11 13 15 17 19 20 21 21 21 22 21 23 22 20 20 18 17
14 7 11 13 6 4 5 9 12 14 17 13 12 16 19 14 11 8 6 14 18 19 12 5 2 8 14 16 18 19 20 21 21 22 22 22 21 22 21 20 19 17 16 14
13 6 11 16 10 5 8 11 5 5 20 16 10 3 11 18 14 6 11 19 21 20 10 3 3 11 17 19 19 20 21 22 21 22 22 21 21 21 20 18 16 15 13 11
8 5 10 9 8 4 8 14 13 14 14 14 12 4 14 10 6 11 16 21 22 21 10 3 6 12 18 19 20 21 22 22 22 22 22 21 20 19 18 16 15 13 13 13
12 13 15 13 18 14 11 12 12 13 10 13 16 20 8 11 12 15 18 24 23 21 10 2 5 11 16 19 20 21 22 23 23 22 21 19 17 16 15 14 13 13 14 14
5 14 18 18 19 17 18 18 17 17 19 18 18 24 19 17 16 18 25 28 22 18 12 3 5 11 16 19 22 22 22 22 21 20 19 17 16 15 14 14 14 15 15 12
4 6 13 20 18 18 22 21 21 21 20 21 22 27 22 25 28 26 25 23 20 17 15 5 10 13 18 21 23 23 22 21 19 18 18 17 15 14 13 14 15 16 14 11
4 4 9 13 11 13 16 17 19 22 21 21 21 23 21 23 20 20 24 23 20 19 15 10 15 16 19 21 23 23 22 20 19 18 17 15 13 12 12 14 15 16 13 12
5 9 9 6 2 9 11 2 9 13 13 15 22 22 23 22 25 24 23 23 24 19 14 13 18 20 21 22 23 22 21 20 19 17 15 12 11 11 12 14 16 14 11 10
12 6 5 4 9 14 19 7 4 3 12 16 21 19 18 20 18 21 20 22 23 19 11 17 20 21 25 24 24 22 22 20 18 15 13 11 11 12 14 17 17 13 11 9
8 12 7 4 4 5 3 6 3 10 17 8 16 18 14 11 11 9 3 11 11 9 13 21 22 24 26 26 24 23 22 20 17 14 13 11 12 15 15 16 14 11 10 9
2 3 12 12 6 6 2 4 8 5 5 15 14 15 19 10 13 14 15 20 18 7 18 21 24 26 26 26 25 24 22 19 16 13 13 12 13 15 15 15 13 11 11 10
3 4 2 6 6 5 5 7 5 13 28 25 20 18 18 18 17 19 20 19 17 10 20 22 24 25 26 26 25 25 22 19 14 13 13 12 15 14 14 14 12 10 10 9
3 2 3 3 3 12 21 14 25 37 37 32 19 19 18 21 18 17 15 12 7 11 19 22 23 25 25 25 24 26 23 18 15 15 14 14 15 13 11 10 10 9 9 8
4 4 3 3 1 13 21 15 24 28 4 10 15 15 11 12 11 10 9 10 9 8 16 21 22 24 25 24 24 25 23 20 17 16 15 15 14 12 9 7 7 8 7 7
4 3 4 5 11 14 6 20 25 23 15 12 9 8 6 7 4 4 1 7 10 10 14 21 22 23 24 25 25 24 23 20 18 17 15 14 12 11 8 7 5 7 9 8
4 3 2 3 18 9 11 18 25 23 17 16 13 11 10 9 8 6 2 6 10 8 15 20 22 23 23 25 25 24 22 20 18 18 15 13 12 9 8 7 9 9 9 8
Wind_Direction
249 260 257 259 253 256 265 268 264 273 261 256 238 241 248 246 252 256 258 253 253 256 263 267 271 269 268 265 272 269 262 259 257 269 263 253 240 240 236 225 226 224 218 216
259 248 263 276 273 275 260 257 259 257 287 246 246 250 251 247 250 250 252 255 259 264 266 267 268 267 266 267 269 269 261 255 259 267 257 239 238 229 225 218 229 216 210 215
274 277 297 260 263 251 253 254 256 253 261 239 251 252 251 249 255 254 256 257 260 261 264 265 265 263 263 261 264 265 261 254 255 261 251 247 231 221 218 223 217 206 206 212
280 288 274 260 258 256 264 249 255 254 250 244 231 254 243 242 244 243 247 249 253 257 258 262 264 263 261 260 257 258 259 250 252 259 247 242 226 217 216 207 209 204 205 204
268 290 285 262 256 261 261 270 249 243 246 245 244 258 258 256 256 255 251 254 255 258 261 261 261 260 260 258 254 251 255 255 259 257 239 238 204 201 194 183 189 187 182 180
270 270 269 265 262 266 260 273 256 240 255 249 237 236 253 252 254 253 251 255 254 258 266 266 262 256 249 250 244 243 246 245 243 238 230 220 194 181 172 173 169 166 166 164
317 320 298 237 240 242 238 238 246 227 231 239 240 231 240 266 313 221 293 264 230 265 267 264 264 246 237 237 229 221 227 226 228 222 213 193 187 180 171 163 155 156 157 161
333 340 334 298 234 241 229 233 241 242 233 234 225 239 225 232 264 266 255 259 270 272 276 268 273 246 234 224 220 221 217 203 198 185 173 167 167 156 155 150 154 152 158 160
314 302 288 305 322 272 235 249 261 263 268 276 228 216 249 247 243 233 239 335 328 312 297 285 267 222 208 201 210 188 174 163 157 153 149 148 145 144 152 145 139 145 152 162
314 299 299 138 290 264 293 248 319 249 257 250 238 212 220 213 228 247 273 2 355 348 330 310 225 183 178 166 147 145 143 143 142 139 140 138 139 142 143 145 145 145 152 158
302 275 288 285 244 229 272 242 243 247 243 265 227 217 210 214 122 111 32 11 0 1 344 341 177 166 144 141 141 138 139 135 135 136 136 133 135 140 141 142 145 150 156 161
309 291 285 287 284 213 172 227 228 251 224 250 298 33 122 113 115 71 12 13 360 11 359 347 138 139 143 141 140 136 135 135 137 133 132 133 135 139 141 145 149 157 161 162
340 255 300 292 167 215 218 239 209 250 254 266 242 160 152 170 90 28 4 0 357 5 17 42 131 139 143 144 141 139 137 137 134 132 133 135 138 140 143 149 156 160 159 154
294 266 263 276 298 321 300 284 276 269 280 269 252 263 192 214 328 332 337 338 342 346 32 69 131 143 144 146 143 141 137 135 133 134 136 136 140 145 150 156 159 158 154 152
268 263 266 273 281 284 281 275 269 260 262 262 262 271 263 274 301 316 309 309 322 337 4 148 163 149 148 145 141 140 137 135 136 137 136 137 139 141 145 149 152 153 152 155
208 264 282 274 268 270 270 268 264 263 259 259 264 266 271 281 283 288 293 306 310 320 336 175 176 161 151 146 144 142 140 139 139 138 137 137 137 141 146 150 154 152 157 160
242 263 269 255 264 274 273 266 258 252 249 242 252 262 263 266 272 276 284 294 301 303 317 181 184 167 156 154 150 147 145 141 140 140 141 141 140 145 151 153 156 158 161 160
221 224 252 281 272 255 254 46 297 297 275 258 253 259 262 265 271 272 274 279 289 292 293 181 182 169 162 155 152 150 149 146 143 144 144 146 149 154 160 163 161 161 161 164
218 211 265 242 227 266 285 294 351 2 285 285 262 257 268 267 267 265 267 273 277 279 252 180 177 166 159 157 157 154 151 149 149 149 150 156 153 158 154 154 160 164 163 163
207 233 257 260 248 256 24 101 28 296 280 305 255 255 267 246 242 253 232 328 299 256 190 168 166 161 158 160 159 155 154 153 155 156 152 151 154 158 158 160 166 170 169 174
225 216 231 242 254 267 279 30 337 239 355 341 342 329 318 248 250 280 300 305 306 209 163 159 160 161 161 160 160 159 157 158 156 151 150 148 155 158 166 167 173 172 169 180
290 305 251 237 244 260 46 323 231 317 305 303 299 297 292 279 269 273 283 287 289 183 157 157 159 159 160 161 160 161 161 159 153 151 149 153 154 152 157 164 176 178 188 181
291 234 300 261 308 294 296 254 274 272 262 270 271 282 277 281 272 277 279 269 249 165 156 158 158 158 160 162 163 160 160 158 157 146 152 154 153 155 158 169 181 183 185 176
281 113 242 315 289 278 309 305 324 343 327 247 277 280 287 279 276 278 264 232 178 154 167 160 157 159 160 161 161 161 161 160 155 151 150 150 151 153 153 160 173 172 166 163
306 248 285 252 278 309 354 353 342 348 22 28 18 4 343 338 336 295 203 196 169 166 163 162 159 159 161 160 159 161 162 160 154 153 148 151 158 152 157 149 153 148 149 153
335 298 284 319 327 1 335 345 345 350 7 14 12 5 17 3 359 1 118 135 151 148 158 170 162 155 156 161 158 162 164 162 156 158 149 152 151 147 153 150 143 139 135 145